Regional Weather Roundup
Issued by NWS Portland, ME

Home | Current Version | Previous Version | Text Only | Print | Product List | Glossary On
Versions: 1 2 3 4 5 6 7 8 9 10 11 12 13 14 15 16 17 18 19 20 21 22 23 24 25 26 27 28 29 30 31 32 33 34 35 36 37 38 39 40 41 42 43 44 45 46 47 48 49 50
000
ASUS41 KGYX 191210
RWRGYX
WEATHER ROUNDUP FOR MAINE AND NEW HAMPSHIRE
NATIONAL WEATHER SERVICE GRAY ME
700 AM EST FRI DEC 19 2014

MEZ002-005-006-010-012-015-018-020-021-024-026-027-029-191300-
MAINE

CITY           SKY/WX    TMP DP  RH WIND       PRES   REMARKS
PORTLAND       PTCLDY    28  23  81 CALM      29.87R
6HR MIN TEMP:  27; 6HR MAX TEMP:  33;

SANFORD        CLEAR     27  16  63 W3        29.87R
BAR HARBOR     CLOUDY    30  28  93 CALM      29.82R
WISCASSET      MOCLDY    30  22  72 W3        29.87R
6HR MIN TEMP:  28; 6HR MAX TEMP:  32;

ROCKLAND       PTCLDY    28  23  80 NW6       29.85R
FRYEBURG       CLEAR     20  18  92 CALM      29.85R
6HR MIN TEMP:  20; 6HR MAX TEMP:  30;

LEWISTONAUBURN CLEAR     28  19  69 CALM      29.85R
AUGUSTA        CLOUDY    28  21  75 NW3       29.85R
6HR MIN TEMP:  26; 6HR MAX TEMP:  30;

WATERVILLE     CLOUDY    27  19  74 CALM      29.83R
BANGOR         CLOUDY    29  23  78 NW7       29.83R
6HR MIN TEMP:  28; 6HR MAX TEMP:  30;

GREENVILLE       N/A     22  19  89 N18G26    29.75R WCI   7
6HR MIN TEMP:  22; 6HR MAX TEMP:  24;

MILLINOCKET    PTCLDY    24  20  84 NW9       29.81S
6HR MIN TEMP:  24; 6HR MAX TEMP:  29;

HOULTON        CLOUDY    24  20  84 NW10      29.76R WCI  14
6HR MIN TEMP:  24; 6HR MAX TEMP:  26;

PRESQUE ISLE   CLOUDY    25  18  74 NW6       29.78R
6HR MIN TEMP:  25; 6HR MAX TEMP:  25;

FRENCHVILLE    CLOUDY    20  17  88 NW13      29.76R WCI   7
6HR MIN TEMP:  20; 6HR MAX TEMP:  21;

CARIBOU        CLOUDY    24  19  81 NW9       29.78R
6HR MIN TEMP:  23; 6HR MAX TEMP:  24;

$$

NHZ002-005-008-009-011-012-014-191300-
NEW HAMPSHIRE

CITY           SKY/WX    TMP DP  RH WIND       PRES   REMARKS
PORTSMOUTH     PTCLDY    29  22  73 W6        29.88R
ROCHESTER      CLEAR     30  21  69 W8        29.86R
6HR MIN TEMP:  30; 6HR MAX TEMP:  32;

NASHUA         CLOUDY    33  23  67 NW13      29.91R
MANCHESTER     CLOUDY    32  22  66 NW10      29.89R
6HR MIN TEMP:  31; 6HR MAX TEMP:  33;

CONCORD        CLOUDY    30  21  69 NW14      29.90R WCI  19
6HR MIN TEMP:  29; 6HR MAX TEMP:  32;

PLYMOUTH       CLOUDY    30  25  82 NW7G21    29.90R
BERLIN         CLOUDY    26  19  74 W5        29.87R
6HR MIN TEMP:  26; 6HR MAX TEMP:  29;

WHITEFIELD     CLOUDY    26  21  81 NW6       29.90R
6HR MIN TEMP:  26; 6HR MAX TEMP:  28;

JAFFREY        CLOUDY    29  21  72 NW5       29.88R
6HR MIN TEMP:  29; 6HR MAX TEMP:  31;

KEENE          CLOUDY    30  21  69 N9        29.92R
LEBANON        CLOUDY    29  22  75 N8        29.93R
6HR MIN TEMP:  29; 6HR MAX TEMP:  31;

MT WASHINGTON  FOG       16 -15  24 NW25        N/A  VSB 1/8 WCI  -3
6HR MIN TEMP:   6; 6HR MAX TEMP:  17;

$$

VTZ005-007-008-191300-
VERMONT

CITY           SKY/WX    TMP DP  RH WIND       PRES   REMARKS
ST JOHNSBURY     N/A     28  20  71 MISG      29.92R
MONTPELIER     CLOUDY    23  20  88 NW9G20    29.95R
BURLINGTON     CLOUDY    26  19  74 N13       30.01R WCI  15
$$

MAZ007-012-024-CTZ003-RIZ002-NYZ038-NYZ072-191300-
SOUTHERN NEW ENGLAND AND NY

CITY           SKY/WX    TMP DP  RH WIND       PRES   REMARKS
BOSTON         MOCLDY    34  24  67 W10       29.91R
WORCESTER      CLOUDY    30  22  72 W18G25    29.87R WCI  18
NANTUCKET      CLOUDY    37  26  64 NW12      29.90R
PROVIDENCE     MOCLDY    34  23  64 W8        29.92R
HARTFORD       MOCLDY    34  20  56 NW15      29.95R
ALBANY         CLOUDY    31  20  63 NW17G26   30.00R WCI  19
NEW YORK CITY  CLOUDY    37  24  59 NW14      30.00R
$$

ANZ081-ANZ082-ANZ150-NHZ014-MEZ023>029-191300-
COASTAL MARINE OBSERVATIONS

STATION/POSITION TIME  TEMP    WIND        PRES    WAVE
                       AIR SEA DIR/SP/G            HT/PER
                 (UTC) (F)     (DEG/KT/KT) (MB)    (FT/S)
MOUNT DESERT ROC 1100   33                 1008.2R
MATINICUS ROCK   1200          320/ 23/ 26 1009.9R
PORTLAND WX BUOY 1150   34 43  320/  8/ 10 1011.1R   1/11
WELLS            1100   31 41  290/  3/  5 1010.1R
ISLE OF SHOALS   1200   32     290/ 14/ 16 1011.2R
JEFFREYS LEDGE   1121      49                N/A     3/ 4
CASHES LEDGE BUO 1150   37 48  330/ 17/ 23 1009.9R   4/ 5
$$

.............KEY..............
   WCI - WIND CHILL
   TC  - TEMPERATURE IN CELSIUS
   VSB - VISIBILITY IN MILES
   HX  - HEAT INDEX
   FAIR- INDICATES FEW OR NO CLOUDS BELOW 12,000 FT, WITH NO
         SIGNIFICANT WEATHER AND/OR OBSTRUCTIONS TO VISIBILITY.




USA.gov is the U.S. government's official web portal to all federal, state and local government web resources and services.